This demonstration page uses our WeatherBlox Daily Observations layout. Learn more.

Hourly Observations for June 12, 2020

Temp ( °F °C ) Dew Point ( °F °C ) Humidity (%) Winds ( mph kmh ) Pressure ( in mb ) Visibility ( mi km ) Precip ( " mm )
12:15 am 00:15 Clear 65 18.2 55 12.6 70 70 NE 6 9 30.2 1023 10 16.0934 0 0
12:35 am 00:35 Clear 64 17.6 55 12.5 72 72 NE 7 11 30.21 1023 10 16.0934 0 0
12:55 am 00:55 Clear 64 17.5 55 12.5 73 73 NE 7 11 30.22 1023 10 16.0934 0 0
1:15 am 01:15 Clear 64 17.8 55 12.5 71 71 NE 8 13 30.21 1023 10 16.0934 0 0
1:35 am 01:35 Clear 64 17.5 54 12.3 72 72 NE 9 15 30.21 1023 10 16.0934 0 0
1:55 am 01:55 Clear 64 18 53 11.9 68 68 NE 8 13 30.2 1023 10 16.0934 0 0
2:15 am 02:15 Clear 65 18.1 53 11.6 66 66 ENE 8 13 30.2 1023 10 16.0934 0 0
2:35 am 02:35 Clear 64 17.8 53 11.5 67 67 ENE 9 15 30.2 1023 10 16.0934 0 0
2:55 am 02:55 Clear 63 17.3 53 11.7 70 70 NE 9 15 30.21 1023 10 16.0934 0 0
3:15 am 03:15 Clear 63 17.1 53 11.8 71 71 ENE 8 13 30.22 1023 10 16.0934 0 0
3:35 am 03:35 Clear 62 16.6 54 12 74 74 ENE 7 11 30.23 1024 10 16.0934 0 0
3:55 am 03:55 Clear 62 16.6 53 11.8 73 73 ENE 9 15 30.23 1024 10 16.0934 0 0
4:15 am 04:15 Clear 64 17.6 53 11.6 68 68 E 13 20 30.21 1023 10 16.0934 0 0
4:35 am 04:35 Clear 64 17.7 53 11.5 67 67 E 9 15 30.21 1023 10 16.0934 0 0
4:55 am 04:55 Clear 61 16 53 11.6 75 75 ENE 7 11 30.22 1023 10 16.0934 0 0
5:15 am 05:15 Clear 59 15.1 53 11.5 79 79 NE 7 11 30.23 1024 10 16.0934 0 0
5:35 am 05:35 Clear 58 14.7 53 11.4 81 81 NE 5 7 30.23 1024 10 16.0934 0 0
5:55 am 05:55 Clear 58 14.7 53 11.4 81 81 Calm 30.23 1024 10 16.0934 0 0
6:15 am 06:15 Sunny 57 13.8 52 11.2 84 84 Calm 30.24 1024 10 16.0934 0 0
6:35 am 06:35 Hazy 57 14.1 52 11.2 83 83 Calm 30.24 1024 5 8.0467 0 0
6:55 am 06:55 Hazy 59 15 53 11.5 80 80 NNE 5 7 30.23 1024 4 6.43736 0 0
7:15 am 07:15 Sunny 61 16.2 54 12.1 77 77 Calm 30.22 1023 10 16.0934 0 0
7:35 am 07:35 Sunny 63 17.3 55 12.5 74 74 Calm 30.21 1023 10 16.0934 0 0
7:55 am 07:55 Sunny 65 18.2 55 12.9 71 71 Calm 30.21 1023 10 16.0934 0 0
8:15 am 08:15 Sunny 67 19.6 56 13.2 67 67 Calm 30.2 1023 7 11.26538 0 0
8:35 am 08:35 Sunny 69 20.6 57 13.7 65 65 Calm 30.19 1022 10 16.0934 0 0
8:55 am 08:55 Sunny 71 21.8 57 14.1 62 62 Calm 30.18 1022 10 16.0934 0 0
9:15 am 09:15 Sunny 73 23 57 13.9 57 57 Calm 30.17 1022 10 16.0934 0 0
9:35 am 09:35 Sunny 76 24.3 57 13.7 52 52 ESE 5 7 30.16 1021 10 16.0934 0 0
9:55 am 09:55 Sunny 77 25.1 56 13.4 48 48 ESE 6 9 30.15 1021 10 16.0934 0 0
10:15 am 10:15 Sunny 80 26.6 56 13.4 44 44 E 6 9 30.14 1021 10 16.0934 0 0
10:35 am 10:35 Sunny 82 27.5 55 12.8 40 40 E 6 9 30.14 1021 10 16.0934 0 0
10:55 am 10:55 Sunny 83 28.2 55 12.8 39 39 ESE 8 13 30.13 1020 10 16.0934 0 0
11:15 am 11:15 Sunny 84 28.9 54 12.3 36 36 SE 10 17 30.11 1020 10 16.0934 0 0
11:35 am 11:35 Sunny 85 29.4 55 12.6 36 36 E 9 15 30.12 1020 10 16.0934 0 0
11:55 am 11:55 Sunny 85 29.5 53 11.5 33 33 E 7 11 30.11 1020 10 16.0934 0 0
12:15 pm 12:15 Sunny 86 29.8 50 10 29 29 ESE 6 9 30.11 1020 10 16.0934 0 0
12:35 pm 12:35 Sunny 86 30.1 49 9.4 28 28 E 6 9 30.11 1019 10 16.0934 0 0
12:55 pm 12:55 Sunny 87 30.6 50 10 28 28 E 10 17 30.1 1019 10 16.0934 0 0
1:15 pm 13:15 Sunny 87 30.7 48 9 26 26 ESE 13 20 30.1 1019 10 16.0934 0 0
1:35 pm 13:35 Sunny 88 31 45 7.4 23 23 E 9 15 30.09 1019 10 16.0934 0 0
1:55 pm 13:55 Sunny 88 31.3 45 7.4 22 22 E 13 20 30.08 1018 10 16.0934 0 0
2:15 pm 14:15 Sunny 89 31.6 45 7.3 22 22 ESE 12 19 30.06 1018 10 16.0934 0 0
2:35 pm 14:35 Sunny 88 31.3 43 5.9 20 20 E 9 15 30.07 1018 10 16.0934 0 0
2:55 pm 14:55 Sunny 89 31.6 42 5.7 20 20 SE 7 11 30.05 1018 10 16.0934 0 0
3:15 pm 15:15 Sunny 89 31.5 42 5.6 20 20 SE 10 17 30.05 1018 10 16.0934 0 0
3:35 pm 15:35 Sunny 89 31.7 42 5.6 19 19 ESE 9 15 30.04 1017 10 16.0934 0 0
3:55 pm 15:55 Sunny 89 31.7 41 5.2 19 19 E 13 20 30.03 1017 10 16.0934 0 0
4:15 pm 16:15 Sunny 89 31.9 43 6 20 20 SE 7 11 30.03 1017 10 16.0934 0 0
4:35 pm 16:35 Sunny 89 31.9 42 5.4 19 19 ESE 14 22 30.02 1017 10 16.0934 0 0
4:55 pm 16:55 Sunny 90 32 42 5.5 19 19 SE 14 22 30.02 1017 10 16.0934 0 0
5:15 pm 17:15 Sunny 89 31.7 42 5.7 19 19 SE 14 22 30.01 1016 10 16.0934 0 0
5:35 pm 17:35 Sunny 89 31.5 43 6.1 20 20 SE 10 17 30.01 1016 10 16.0934 0 0
5:55 pm 17:55 Sunny 88 31.3 43 6.2 21 21 ESE 9 15 30.01 1016 10 16.0934 0 0
6:15 pm 18:15 Sunny 88 31.2 46 7.5 23 23 SE 14 22 30.01 1016 10 16.0934 0 0
6:35 pm 18:35 Sunny 88 31 46 7.8 23 23 SE 12 19 30 1016 10 16.0934 0 0
6:55 pm 18:55 Sunny 87 30.5 47 8.4 25 25 ESE 12 19 30 1016 10 16.0934 0 0
7:15 pm 19:15 Sunny 86 30.1 45 7.3 24 24 ESE 13 20 30.01 1016 10 16.0934 0 0
7:35 pm 19:35 Sunny 86 30 46 7.6 25 25 SE 13 20 30.01 1016 10 16.0934 0 0
7:55 pm 19:55 Sunny 85 29.3 46 7.9 26 26 ESE 12 19 30.01 1016 10 16.0934 0 0
8:15 pm 20:15 Sunny 83 28.4 48 9.1 30 30 ESE 10 17 30.02 1017 10 16.0934 0 0
8:35 pm 20:35 Sunny 80 26.9 51 10.3 35 35 SE 8 13 30.03 1017 10 16.0934 0 0
8:55 pm 20:55 Sunny 78 25.7 53 11.9 42 42 SE 8 13 30.05 1018 10 16.0934 0 0
9:15 pm 21:15 Clear 74 23.5 55 12.6 50 50 SE 7 11 30.06 1018 10 16.0934 0 0
9:35 pm 21:35 Clear 73 22.5 55 12.6 54 54 SE 7 11 30.08 1018 10 16.0934 0 0
9:55 pm 21:55 Clear 71 21.8 55 12.6 56 56 SE 7 11 30.09 1019 10 16.0934 0 0
10:15 pm 22:15 Clear 71 21.5 55 13 59 59 SE 8 13 30.09 1019 10 16.0934 0 0
10:35 pm 22:35 Clear 69 20.7 55 13 62 62 SSE 6 9 30.1 1019 10 16.0934 0 0
10:55 pm 22:55 Clear 70 21 55 13 60 60 SSE 3 6 30.1 1019 10 16.0934 0 0
11:15 pm 23:15 Clear 68 20.2 55 12.9 63 63 SSE 6 9 30.11 1019 10 16.0934 0 0
11:35 pm 23:35 Clear 66 18.9 55 12.7 67 67 SE 6 9 30.11 1019 10 16.0934 0 0
11:55 pm 23:55 Clear 65 18.4 55 13 71 71 SE 7 11 30.1 1019 10 16.0934 0 0

Powered by AerisWeather